sat.trackr.live / text

‹ back to catalog

STARLINK-6213

NORAD 56891 · 2023-083R

PAYLOAD ACTIVE UNKNOWN

§ Identity

Operator
Country
US
Launch date
2023-06-12
Launch site
AFETR
Launch vehicle
Mass (kg)
RCS (m²)

Purposes: comms

External: N2YO · Heavens-Above · Gunter

§ Orbital elements

Epoch: 2026-05-24T23:57:48.830112Z

Period
94.27 min
Inclination
43.0032°
Eccentricity
0.0001111
Mean motion
15.27573313 rev/d
Perigee alt
482.3 km
Apogee alt
483.8 km
Semi-major
6,861.2 km
B*
5.9947e-5
RAAN
13.9967°
Arg perigee
273.3409°
Mean anomaly
86.7315°
Rev number
16,330

§ Raw data

STARLINK-62131 56891U 23083R   26144.99848183  .00001388  00000+0  59947-4 0  99992 56891  43.0032  13.9967 0001111 273.3409  86.7315 15.27573313163300

JSON: /api/v1/satellites/56891 · /tle

For live sub-satellite position, see the globe view (requires WebGL).

§ Visibility from observer

Set your observer location to see the next 7 days of passes ≥ 10°. The values pass through the URL so the page stays shareable.

No JS? Fill the form by hand. The geolocation button needs JavaScript.